Location: Unspecified
(0.0000°N, 0.0000°E)
Time: 19:47:51
(UTC+00:00)

Oscar 15 - Pass Details

Date: 11 June 2023
Orbit: 780 x 795 km, 98.9° (Epoch: 24 September)

Event Time Altitude Azimuth Distance (km) Brightness Sun altitude
Rises 19:24:51 0° 191° (S) 3,262 11.6 -19.5°
Reaches altitude 10° 19:27:33 10° 204° (SSW) 2,332 11.0 -20.1°
Maximum altitude 19:31:38 24° 257° (WSW) 1,556 10.6 -21.0°
Drops below altitude 10° 19:35:44 10° 310° (NW) 2,327 12.0 -22.0°
Sets 19:38:27 0° 324° (NW) 3,254 12.8 -22.6°
